Change the Weather History Date:

Sunday, August 10, 2014

  Actual Average (KLCI) Record (KLCI)
Temperature  
Mean Temperature 65 °F -  
Max Temperature 82 °F 81 °F 90 °F (1988)
Min Temperature 48 °F 59 °F 46 °F (1999)
Growing Degree Days 15 (Base 50)    
Moisture  
Dew Point 60 °F    
Average Humidity 82    
Maximum Humidity 100    
Minimum Humidity 49    
Precipitation  
Precipitation 0.00 in - - ()
Sea Level Pressure  
Sea Level Pressure 30.13 in    
Wind  
Wind Speed 1 mph (WNW)    
Max Wind Speed 9 mph    
Max Gust Speed -    
Visibility 7 miles    
Events Fog , Rain , Thunderstorm    
Averages and records for this station are not official NWS values.
T = Trace of Precipitation, MM = Missing Value Source: NWS Daily Summary

Daily Weather History Graph

Daily Weather History Graph

Search for Another Location

Airport or City:

Trip Planner

Search our weather history database for the weather conditions in past years. The results will help you decide how hot, cold, wet, or windy it might be!

Date:

Astronomy

Aug. 10, 2014 Rise Set
Actual Time 5:45 AM EDT 7:58 PM EDT
Civil Twilight 5:13 AM EDT 8:29 PM EDT
Nautical Twilight 4:34 AM EDT 9:08 PM EDT
Astronomical Twilight 3:51 AM EDT 9:52 PM EDT
Moon 7:40 PM EDT (8/10) 5:35 AM EDT (8/10)
Length of Visible Light 15h 15m
Length of Day
14h 12m
Full, 100% of the Moon is Illuminated
Aug 10
Full
Aug 10
Full
Aug 17
Last Quarter
Aug 25
New
Sep 2
First Quarter

Hourly Weather History & Observations

Time (EDT) Temp. Heat Index Dew Point Humidity Pressure Visibility Wind Dir Wind Speed Gust Speed Precip Events Conditions
12:15 AM 55.8 °F - 55.8 °F 100% 30.13 in 4.0 mi Calm Calm - N/A   Clear
12:35 AM 55.4 °F - 55.4 °F 100% 30.13 in 0.8 mi Calm Calm - N/A   Mist
12:55 AM 54.5 °F - 54.5 °F 100% 30.13 in 1.0 mi Calm Calm - N/A   Mist
1:15 AM 53.8 °F - 53.8 °F 100% 30.13 in 3.0 mi Calm Calm - N/A   Clear
1:35 AM 53.8 °F - 53.8 °F 100% 30.13 in 1.5 mi Calm Calm - N/A   Mist
1:55 AM 53.2 °F - 53.2 °F 100% 30.14 in 2.0 mi Calm Calm - N/A   Clear
2:15 AM 52.7 °F - 52.7 °F 100% 30.14 in 3.0 mi Calm Calm - N/A   Clear
2:35 AM 52.9 °F - 52.9 °F 100% 30.13 in 2.5 mi Calm Calm - N/A   Clear
2:55 AM 52.0 °F - 52.0 °F 100% 30.14 in 3.0 mi Calm Calm - N/A   Clear
3:15 AM 52.2 °F - 52.2 °F 100% 30.14 in 3.0 mi Calm Calm - N/A   Clear
3:35 AM 51.3 °F - 51.3 °F 100% 30.14 in 1.5 mi Calm Calm - N/A   Mist
3:55 AM 50.5 °F - 50.5 °F 100% 30.14 in 1.2 mi Calm Calm - N/A   Mist
4:15 AM 50.4 °F - 50.4 °F 100% 30.14 in 2.0 mi Calm Calm - N/A   Clear
4:35 AM 50.7 °F - 50.7 °F 100% 30.14 in 5.0 mi Calm Calm - N/A   Clear
5:15 AM 48.9 °F - 48.9 °F 100% 30.14 in 2.0 mi Calm Calm - N/A   Clear
5:35 AM 49.1 °F - 49.1 °F 100% 30.14 in 3.0 mi Calm Calm - N/A   Clear
5:55 AM 48.4 °F - 48.4 °F 100% 30.15 in 0.2 mi Calm Calm - N/A Fog Fog
6:15 AM 49.1 °F - 49.1 °F 100% 30.15 in 0.2 mi Calm Calm - N/A Fog Fog
6:35 AM 50.0 °F - 50.0 °F 100% 30.15 in 0.2 mi Calm Calm - N/A Fog Fog
7:15 AM 52.9 °F - 52.9 °F 100% 30.16 in 0.8 mi Calm Calm - N/A   Mostly Cloudy
7:35 AM 54.5 °F - 54.5 °F 100% 30.15 in 5.0 mi Calm Calm - N/A   Scattered Clouds
7:55 AM 55.9 °F - 55.9 °F 100% 30.16 in 10.0 mi Calm Calm - N/A   Clear
8:15 AM 56.8 °F - 56.8 °F 100% 30.16 in 10.0 mi Calm Calm - N/A   Clear
8:35 AM 59.2 °F - 59.2 °F 100% 30.16 in 10.0 mi Calm Calm - N/A   Clear
8:55 AM 62.1 °F - 62.1 °F 100% 30.16 in 10.0 mi Calm Calm - N/A   Clear
9:15 AM 64.6 °F - 62.1 °F 92% 30.15 in 10.0 mi Calm Calm - N/A   Clear
9:35 AM 66.7 °F - 63.1 °F 88% 30.15 in 10.0 mi Calm Calm - N/A   Clear
10:15 AM 72.9 °F - 64.9 °F 76% 30.14 in 10.0 mi Calm Calm - N/A   Clear
10:35 AM 74.7 °F - 64.9 °F 72% 30.14 in 10.0 mi WNW 5.8 mph - N/A   Clear
10:55 AM 75.2 °F - 64.9 °F 70% 30.14 in 10.0 mi WNW 5.8 mph - N/A   Clear
11:15 AM 77.0 °F - 64.9 °F 66% 30.13 in 10.0 mi West 5.8 mph - N/A   Clear
11:35 AM 77.9 °F - 64.4 °F 63% 30.13 in 7.0 mi WNW 5.8 mph - N/A   Clear
11:55 AM 79.0 °F - 63.9 °F 60% 30.12 in 10.0 mi West 3.5 mph - N/A   Scattered Clouds
12:15 PM 80.6 °F 81.7 °F 62.2 °F 53% 30.12 in 10.0 mi WNW 4.6 mph - N/A   Scattered Clouds
12:35 PM 78.1 °F - 62.2 °F 58% 30.12 in 10.0 mi WNW 4.6 mph - N/A   Mostly Cloudy
12:55 PM 80.8 °F 81.9 °F 62.4 °F 53% 30.12 in 10.0 mi West 6.9 mph - N/A   Scattered Clouds
1:15 PM 81.1 °F 82.4 °F 63.0 °F 54% 30.11 in 10.0 mi West 4.6 mph - N/A   Scattered Clouds
1:35 PM 82.0 °F 83.0 °F 62.4 °F 51% 30.11 in 10.0 mi West 5.8 mph - N/A   Scattered Clouds
1:55 PM 80.6 °F 81.7 °F 61.9 °F 53% 30.11 in 10.0 mi West 5.8 mph - N/A   Mostly Cloudy
2:15 PM 81.9 °F 82.9 °F 62.6 °F 52% 30.10 in 10.0 mi WSW 3.5 mph - N/A   Mostly Cloudy
2:35 PM 79.7 °F - 61.9 °F 54% 30.10 in 10.0 mi Calm Calm - N/A   Mostly Cloudy
2:55 PM 81.0 °F 82.6 °F 64.2 °F 57% 30.10 in 10.0 mi WSW 5.8 mph - N/A   Mostly Cloudy
3:15 PM 79.5 °F - 60.4 °F 52% 30.09 in 10.0 mi Calm Calm - N/A   Scattered Clouds
3:35 PM 77.9 °F - 66.7 °F 68% 30.09 in 10.0 mi Calm Calm - N/A   Clear
3:55 PM 81.1 °F 82.8 °F 64.6 °F 57% 30.09 in 10.0 mi Calm Calm - N/A   Mostly Cloudy
4:15 PM 80.8 °F 81.4 °F 60.1 °F 49% 30.09 in 10.0 mi Calm Calm - N/A   Mostly Cloudy
4:35 PM 79.7 °F - 66.6 °F 64% 30.08 in 10.0 mi Calm Calm - N/A   Clear
4:55 PM 77.0 °F - 66.6 °F 70% 30.08 in 10.0 mi Calm Calm - N/A   Clear
5:15 PM 78.4 °F - 66.6 °F 67% 30.08 in 10.0 mi West 4.6 mph - N/A   Clear
5:35 PM 79.2 °F - 67.1 °F 66% 30.09 in 10.0 mi WNW 3.5 mph - N/A   Scattered Clouds
5:55 PM 79.7 °F - 68.7 °F 69% 30.08 in 10.0 mi Calm Calm - N/A   Scattered Clouds
6:15 PM 80.2 °F 82.5 °F 66.6 °F 63% 30.09 in 10.0 mi Calm Calm - N/A   Mostly Cloudy
6:35 PM 80.6 °F 82.4 °F 65.1 °F 59% 30.09 in 10.0 mi Calm Calm - N/A   Overcast
6:55 PM 78.8 °F - 65.1 °F 63% 30.09 in 10.0 mi Calm Calm - N/A   Overcast
7:15 PM 77.0 °F - 63.7 °F 63% 30.12 in 10.0 mi ENE 9.2 mph - N/A Thunderstorm Overcast
7:35 PM 74.8 °F - 63.0 °F 66% 30.13 in 10.0 mi NE 6.9 mph - N/A Thunderstorm Overcast
8:15 PM 70.9 °F - 61.9 °F 73% 30.13 in 10.0 mi SE 3.5 mph - N/A Rain Light Rain
8:35 PM 69.1 °F - 62.4 °F 79% 30.14 in 10.0 mi ENE 3.5 mph - N/A   Mostly Cloudy
8:55 PM 66.7 °F - 64.2 °F 92% 30.14 in 10.0 mi Calm Calm - N/A Rain Light Rain
9:15 PM 65.5 °F - 64.6 °F 97% 30.14 in 10.0 mi Calm Calm - N/A Rain Light Rain
9:35 PM 64.9 °F - 64.6 °F 99% 30.14 in 10.0 mi Calm Calm - N/A Rain Light Rain
9:55 PM 64.0 °F - 64.0 °F 100% 30.15 in 10.0 mi Calm Calm - N/A   Mostly Cloudy
10:15 PM 63.5 °F - 63.5 °F 100% 30.15 in 10.0 mi Calm Calm - N/A   Scattered Clouds
10:35 PM 62.1 °F - 62.1 °F 100% 30.15 in 7.0 mi Calm Calm - N/A   Clear
10:55 PM 61.7 °F - 61.7 °F 100% 30.15 in 5.0 mi Calm Calm - N/A   Scattered Clouds
11:15 PM 60.8 °F - 60.8 °F 100% 30.15 in 3.0 mi Calm Calm - N/A   Clear
11:35 PM 60.3 °F - 60.3 °F 100% 30.15 in 4.0 mi Calm Calm - N/A   Clear
11:55 PM 58.8 °F - 58.8 °F 100% 30.15 in 1.0 mi Calm Calm - N/A   Mist